Station Historical Data
Daily Summary for January 1, 2017 Units:  Metric    English   Both
« Previous Day
Next Day »
Daily Weekly Monthly Yearly Custom
  High: Low: Average:
Temperature: 3.3 °C -3.7 °C 0 °C
Dew Point: -1.5 °C -6.2 °C -4.1 °C
Humidity: 90% 62% 74%
Wind Speed: 22.5km/h 0km/h 6.6km/h
Wind Gust: 32.2km/h - -
Wind- - WSW
Pressure: 1027.7 hPa 1009 hPa -
Precipitation: 0 mm    
Historical Graphs
 
 
Tabular Data for January 1, 2017
Time Temperature Dew Point Pressure Wind Wind Speed Wind Gust Humidity Rainfall Rate (Hourly)
00:04 1.4 °C -2.9 °C 1009 hPa WSW 8 km/h 29 km/h 73% 0 mm
00:09 1.4 °C -2.9 °C 1009 hPa West 12.9 km/h 25.7 km/h 73% 0 mm
00:14 1.3 °C -3.2 °C 1009 hPa WNW 6.4 km/h 27.4 km/h 72% 0 mm
00:19 1.3 °C -3.2 °C 1009 hPa West 12.9 km/h 29 km/h 72% 0 mm
00:24 1.2 °C -3.1 °C 1009.4 hPa West 12.9 km/h 29 km/h 73% 0 mm
00:29 1.1 °C -3.2 °C 1009.4 hPa WSW 8 km/h 19.3 km/h 73% 0 mm
00:34 0.9 °C -3.2 °C 1009.7 hPa West 8 km/h 19.3 km/h 74% 0 mm
00:39 0.9 °C -3.4 °C 1009.7 hPa West 19.3 km/h 22.5 km/h 73% 0 mm
00:44 0.9 °C -3.6 °C 1010 hPa West 6.4 km/h 24.1 km/h 72% 0 mm
00:49 0.9 °C -3.7 °C 1010.4 hPa WSW 4.8 km/h 17.7 km/h 71% 0 mm
00:54 0.9 °C -3.6 °C 1010.4 hPa West 8 km/h 17.7 km/h 72% 0 mm
00:59 0.9 °C -3.6 °C 1010.7 hPa West 8 km/h 17.7 km/h 72% 0 mm
01:05 1 °C -3.7 °C 1010.7 hPa West 9.7 km/h 20.9 km/h 71% 0 mm
01:10 0.9 °C -3.7 °C 1011.1 hPa WSW 11.3 km/h 20.9 km/h 71% 0 mm
01:15 1 °C -4.2 °C 1011.1 hPa SW 19.3 km/h 29 km/h 68% 0 mm
01:20 1 °C -4.2 °C 1011.1 hPa WNW 9.7 km/h 22.5 km/h 68% 0 mm
01:25 1 °C -4.7 °C 1011.4 hPa West 8 km/h 32.2 km/h 66% 0 mm
01:30 0.9 °C -4.6 °C 1011.4 hPa WSW 9.7 km/h 24.1 km/h 67% 0 mm
01:35 0.8 °C -4.6 °C 1011.7 hPa West 6.4 km/h 24.1 km/h 67% 0 mm
01:40 0.8 °C -4.7 °C 1011.7 hPa WNW 9.7 km/h 22.5 km/h 67% 0 mm
01:45 0.7 °C -4.8 °C 1011.7 hPa West 11.3 km/h 24.1 km/h 67% 0 mm
01:50 0.7 °C -4.8 °C 1012.1 hPa West 12.9 km/h 27.4 km/h 67% 0 mm
01:55 0.6 °C -4.7 °C 1012.4 hPa West 12.9 km/h 27.4 km/h 68% 0 mm
02:00 0.6 °C -4.7 °C 1012.4 hPa West 11.3 km/h 22.5 km/h 68% 0 mm
02:05 0.6 °C -4.9 °C 1012.8 hPa WSW 9.7 km/h 22.5 km/h 67% 0 mm
02:10 0.6 °C -4.9 °C 1012.8 hPa West 12.9 km/h 25.7 km/h 67% 0 mm
02:15 0.4 °C -5.1 °C 1013.1 hPa West 12.9 km/h 25.7 km/h 67% 0 mm
02:20 0.3 °C -5.3 °C 1013.1 hPa West 12.9 km/h 27.4 km/h 66% 0 mm
02:25 0.3 °C -5.3 °C 1013.1 hPa WNW 22.5 km/h 29 km/h 66% 0 mm
02:30 0.3 °C -5.3 °C 1013.4 hPa West 12.9 km/h 25.7 km/h 66% 0 mm
02:35 0.3 °C -5.1 °C 1013.4 hPa West 12.9 km/h 19.3 km/h 67% 0 mm
02:40 0.2 °C -5.2 °C 1013.8 hPa West 9.7 km/h 20.9 km/h 67% 0 mm
02:45 0.2 °C -5.2 °C 1013.8 hPa West 9.7 km/h 20.9 km/h 67% 0 mm
02:50 0.2 °C -5.2 °C 1014.1 hPa West 9.7 km/h 20.9 km/h 67% 0 mm
02:55 0.2 °C -5.2 °C 1014.1 hPa West 9.7 km/h 25.7 km/h 67% 0 mm
03:00 0.1 °C -5.3 °C 1014.1 hPa West 11.3 km/h 25.7 km/h 67% 0 mm
03:05 0 °C -5.4 °C 1014.1 hPa West 9.7 km/h 25.7 km/h 67% 0 mm
03:10 -0.1 °C -5.3 °C 1014.4 hPa West 8 km/h 24.1 km/h 68% 0 mm
03:15 -0.2 °C -5.4 °C 1014.4 hPa SW 11.3 km/h 20.9 km/h 68% 0 mm
03:20 -0.3 °C -5.5 °C 1014.4 hPa West 9.7 km/h 22.5 km/h 68% 0 mm
03:25 -0.3 °C -5.3 °C 1014.4 hPa West 9.7 km/h 22.5 km/h 69% 0 mm
03:30 -0.4 °C -5.3 °C 1014.8 hPa WNW 8 km/h 16.1 km/h 70% 0 mm
03:35 -0.4 °C -5.3 °C 1014.8 hPa WSW 11.3 km/h 14.5 km/h 70% 0 mm
03:40 -0.5 °C -5.1 °C 1015.1 hPa SSW 3.2 km/h 17.7 km/h 71% 0 mm
03:45 -0.6 °C -5.2 °C 1015.1 hPa WSW 8 km/h 19.3 km/h 71% 0 mm
03:50 -0.6 °C -5.3 °C 1015.5 hPa WSW 8 km/h 17.7 km/h 70% 0 mm
03:55 -0.5 °C -5.7 °C 1015.8 hPa West 9.7 km/h 24.1 km/h 68% 0 mm
04:00 -0.4 °C -5.6 °C 1015.8 hPa SW 11.3 km/h 20.9 km/h 68% 0 mm
04:05 -0.4 °C -5.6 °C 1015.8 hPa WSW 11.3 km/h 20.9 km/h 68% 0 mm
04:10 -0.4 °C -5.6 °C 1016.1 hPa WSW 11.3 km/h 20.9 km/h 68% 0 mm
04:15 -0.4 °C -5.6 °C 1016.1 hPa West 11.3 km/h 22.5 km/h 68% 0 mm
04:20 -0.5 °C -5.7 °C 1016.1 hPa SW 12.9 km/h 22.5 km/h 68% 0 mm
04:25 -0.5 °C -5.7 °C 1015.8 hPa WSW 9.7 km/h 22.5 km/h 68% 0 mm
04:30 -0.6 °C -5.7 °C 1016.1 hPa WSW 9.7 km/h 19.3 km/h 68% 0 mm
04:34 -0.6 °C -5.8 °C 1016.1 hPa SW 8 km/h 17.7 km/h 68% 0 mm
04:40 -0.7 °C -5.8 °C 1016.1 hPa WSW 8 km/h 16.1 km/h 68% 0 mm
04:45 -0.7 °C -5.7 °C 1016.1 hPa WSW 8 km/h 19.3 km/h 69% 0 mm
04:50 -0.7 °C -5.7 °C 1016.1 hPa West 6.4 km/h 19.3 km/h 69% 0 mm
04:54 -0.7 °C -5.7 °C 1016.1 hPa WSW 9.7 km/h 19.3 km/h 69% 0 mm
05:00 -0.7 °C -5.7 °C 1016.1 hPa WSW 9.7 km/h 20.9 km/h 69% 0 mm
05:05 -0.7 °C -5.7 °C 1016.1 hPa West 12.9 km/h 17.7 km/h 69% 0 mm
05:10 -0.7 °C -5.7 °C 1016.1 hPa WSW 8 km/h 17.7 km/h 69% 0 mm
05:15 -0.7 °C -5.7 °C 1016.5 hPa WSW 11.3 km/h 16.1 km/h 69% 0 mm
05:20 -0.7 °C -5.7 °C 1016.5 hPa WSW 9.7 km/h 19.3 km/h 69% 0 mm
05:25 -0.7 °C -5.9 °C 1016.5 hPa West 11.3 km/h 20.9 km/h 68% 0 mm
05:29 -0.7 °C -5.7 °C 1016.5 hPa WSW 9.7 km/h 20.9 km/h 69% 0 mm
05:34 -0.7 °C -5.7 °C 1016.5 hPa WSW 6.4 km/h 14.5 km/h 69% 0 mm
05:39 -0.8 °C -5.6 °C 1016.5 hPa West 8 km/h 16.1 km/h 70% 0 mm
05:45 -0.8 °C -5.4 °C 1016.8 hPa WSW 19.3 km/h 19.3 km/h 71% 0 mm
05:50 -0.7 °C -5.3 °C 1016.8 hPa West 3.2 km/h 17.7 km/h 71% 0 mm
05:55 -0.7 °C -5.3 °C 1017.2 hPa West 9.7 km/h 16.1 km/h 71% 0 mm
06:00 -0.7 °C -5.4 °C 1017.2 hPa WSW 8 km/h 20.9 km/h 70% 0 mm
06:04 -0.7 °C -5.4 °C 1017.2 hPa WSW 11.3 km/h 20.9 km/h 70% 0 mm
06:10 -0.7 °C -5.7 °C 1017.2 hPa West 8 km/h 14.5 km/h 69% 0 mm
06:15 -0.8 °C -5.8 °C 1017.5 hPa West 8 km/h 16.1 km/h 69% 0 mm
06:20 -0.8 °C -5.8 °C 1017.5 hPa West 9.7 km/h 16.1 km/h 69% 0 mm
06:25 -0.8 °C -5.8 °C 1017.8 hPa West 9.7 km/h 22.5 km/h 69% 0 mm
06:30 -0.8 °C -5.8 °C 1018.2 hPa WSW 4.8 km/h 19.3 km/h 69% 0 mm
06:34 -0.7 °C -5.7 °C 1018.2 hPa WSW 12.9 km/h 20.9 km/h 69% 0 mm
06:39 -0.6 °C -5.6 °C 1018.5 hPa WNW 6.4 km/h 19.3 km/h 69% 0 mm
06:44 -0.6 °C -5.6 °C 1018.5 hPa West 8 km/h 17.7 km/h 69% 0 mm
06:50 -0.6 °C -5.6 °C 1018.5 hPa WSW 8 km/h 20.9 km/h 69% 0 mm
06:55 -0.6 °C -5.6 °C 1018.5 hPa West 16.1 km/h 24.1 km/h 69% 0 mm
07:00 -0.4 °C -5.4 °C 1018.5 hPa WSW 8 km/h 22.5 km/h 69% 0 mm
07:05 -0.4 °C -5.4 °C 1018.5 hPa SW 8 km/h 17.7 km/h 69% 0 mm
07:09 -0.5 °C -5.5 °C 1018.8 hPa WSW 8 km/h 17.7 km/h 69% 0 mm
07:15 -0.5 °C -5.5 °C 1018.8 hPa WSW 8 km/h 17.7 km/h 69% 0 mm
07:20 -0.6 °C -5.6 °C 1018.8 hPa WSW 8 km/h 17.7 km/h 69% 0 mm
07:25 -0.6 °C -5.3 °C 1019.2 hPa WSW 8 km/h 17.7 km/h 70% 0 mm
07:30 -0.6 °C -5.4 °C 1019.2 hPa WSW 8 km/h 20.9 km/h 70% 0 mm
07:35 -0.7 °C -5.4 °C 1019.2 hPa WSW 8 km/h 20.9 km/h 70% 0 mm
07:39 -0.7 °C -5.4 °C 1019.2 hPa WSW 8 km/h 16.1 km/h 70% 0 mm
07:44 -0.7 °C -5.3 °C 1019.5 hPa WSW 8 km/h 12.9 km/h 71% 0 mm
07:49 -0.7 °C -5.3 °C 1019.5 hPa WSW 4.8 km/h 17.7 km/h 71% 0 mm
07:54 -0.7 °C -5.3 °C 1019.5 hPa WSW 12.9 km/h 14.5 km/h 71% 0 mm
07:59 -0.7 °C -5.3 °C 1019.9 hPa West 4.8 km/h 16.1 km/h 71% 0 mm
08:04 -0.7 °C -5.2 °C 1019.9 hPa West 6.4 km/h 16.1 km/h 72% 0 mm
08:09 -0.7 °C -5.2 °C 1019.9 hPa WNW 8 km/h 16.1 km/h 72% 0 mm
08:14 -0.7 °C -5.1 °C 1020.2 hPa WSW 8 km/h 17.7 km/h 72% 0 mm
08:20 -0.7 °C -5.1 °C 1020.2 hPa WSW 4.8 km/h 14.5 km/h 72% 0 mm
08:25 -0.6 °C -5.1 °C 1020.5 hPa West 8 km/h 14.5 km/h 72% 0 mm
08:30 -0.6 °C -5 °C 1020.5 hPa West 6.4 km/h 22.5 km/h 72% 0 mm
08:35 -0.6 °C -5 °C 1020.5 hPa West 8 km/h 22.5 km/h 72% 0 mm
08:40 -0.5 °C -5.1 °C 1020.9 hPa West 8 km/h 19.3 km/h 71% 0 mm
08:44 -0.4 °C -5.1 °C 1020.9 hPa West 6.4 km/h 19.3 km/h 71% 0 mm
08:50 -0.3 °C -5.2 °C 1020.9 hPa WSW 6.4 km/h 16.1 km/h 70% 0 mm
08:54 -0.3 °C -5.1 °C 1020.9 hPa WNW 9.7 km/h 12.9 km/h 70% 0 mm
08:59 -0.2 °C -5.2 °C 1020.9 hPa WNW 4.8 km/h 16.1 km/h 69% 0 mm
09:04 -0.2 °C -5.2 °C 1021.2 hPa West 16.1 km/h 16.1 km/h 69% 0 mm
09:09 0 °C -5.2 °C 1021.2 hPa WSW 4.8 km/h 16.1 km/h 68% 0 mm
09:14 0.2 °C -5.4 °C 1021.2 hPa WSW 8 km/h 16.1 km/h 66% 0 mm
09:19 0.3 °C -5.1 °C 1021.2 hPa West 8 km/h 17.7 km/h 67% 0 mm
09:24 0.4 °C -5.2 °C 1021.6 hPa West 6.4 km/h 17.7 km/h 66% 0 mm
09:30 0.3 °C -5.3 °C 1021.6 hPa West 8 km/h 14.5 km/h 66% 0 mm
09:35 0.4 °C -5.2 °C 1021.6 hPa West 6.4 km/h 14.5 km/h 66% 0 mm
09:40 0.6 °C -5.4 °C 1021.9 hPa West 6.4 km/h 11.3 km/h 64% 0 mm
09:45 0.8 °C -5.2 °C 1021.9 hPa WSW 6.4 km/h 12.9 km/h 64% 0 mm
09:49 1 °C -5.3 °C 1021.9 hPa WSW 16.1 km/h 17.7 km/h 63% 0 mm
09:54 1.1 °C -5.4 °C 1022.2 hPa West 4.8 km/h 19.3 km/h 62% 0 mm
09:59 1 °C -5.5 °C 1022.2 hPa SW 9.7 km/h 14.5 km/h 62% 0 mm
10:04 1.4 °C -5.1 °C 1022.2 hPa West 3.2 km/h 11.3 km/h 62% 0 mm
10:09 1.4 °C -4.8 °C 1022.6 hPa WSW 11.3 km/h 19.3 km/h 63% 0 mm
10:14 1.6 °C -4.5 °C 1022.6 hPa WSW 8 km/h 14.5 km/h 64% 0 mm
10:19 1.7 °C -4.4 °C 1022.6 hPa WSW 8 km/h 17.7 km/h 64% 0 mm
10:24 1.7 °C -4.2 °C 1022.6 hPa WSW 8 km/h 17.7 km/h 65% 0 mm
10:29 1.8 °C -4.1 °C 1022.9 hPa WSW 8 km/h 17.7 km/h 65% 0 mm
10:34 1.8 °C -4.1 °C 1022.9 hPa West 8 km/h 16.1 km/h 65% 0 mm
10:40 1.8 °C -3.9 °C 1022.9 hPa WSW 6.4 km/h 19.3 km/h 66% 0 mm
10:44 1.4 °C -3.8 °C 1022.9 hPa WSW 4.8 km/h 16.1 km/h 68% 0 mm
10:49 1.5 °C -3.6 °C 1022.9 hPa WNW 6.4 km/h 8 km/h 69% 0 mm
10:54 1.4 °C -3.8 °C 1022.9 hPa SW 9.7 km/h 16.1 km/h 68% 0 mm
10:59 1.4 °C -3.6 °C 1022.9 hPa WSW 9.7 km/h 19.3 km/h 69% 0 mm
11:04 1.4 °C -3.6 °C 1022.9 hPa West 6.4 km/h 17.7 km/h 69% 0 mm
11:09 1.3 °C -3.6 °C 1022.6 hPa West 9.7 km/h 17.7 km/h 70% 0 mm
11:14 1.4 °C -3.2 °C 1022.6 hPa SW 9.7 km/h 14.5 km/h 71% 0 mm
11:20 1.4 °C -3.4 °C 1022.6 hPa WSW 9.7 km/h 19.3 km/h 70% 0 mm
11:25 1.6 °C -3.1 °C 1022.6 hPa WSW 6.4 km/h 17.7 km/h 71% 0 mm
11:29 1.7 °C -3.2 °C 1022.6 hPa WSW 9.7 km/h 17.7 km/h 70% 0 mm
11:34 2.1 °C -2.7 °C 1022.9 hPa WSW 8 km/h 17.7 km/h 71% 0 mm
11:39 1.9 °C -2.9 °C 1022.9 hPa WSW 8 km/h 19.3 km/h 70% 0 mm
11:44 1.9 °C -2.6 °C 1022.6 hPa WSW 11.3 km/h 16.1 km/h 72% 0 mm
11:49 2.1 °C -2.7 °C 1022.6 hPa SSE 8 km/h 17.7 km/h 71% 0 mm
11:54 2.1 °C -2.4 °C 1022.6 hPa SW 9.7 km/h 16.1 km/h 72% 0 mm
11:59 2.4 °C -2.3 °C 1022.6 hPa SW 17.7 km/h 19.3 km/h 71% 0 mm
12:04 2.4 °C -2.5 °C 1022.6 hPa SW 9.7 km/h 19.3 km/h 70% 0 mm
12:09 2.8 °C -2.6 °C 1022.6 hPa SW 11.3 km/h 24.1 km/h 68% 0 mm
12:14 2.7 °C -2.7 °C 1022.6 hPa SW 4.8 km/h 25.7 km/h 68% 0 mm
12:19 2.9 °C -2.4 °C 1022.6 hPa WSW 20.9 km/h 24.1 km/h 68% 0 mm
12:24 2.8 °C -2.3 °C 1022.6 hPa West 8 km/h 20.9 km/h 69% 0 mm
12:29 2.7 °C -2.2 °C 1022.6 hPa SW 3.2 km/h 22.5 km/h 70% 0 mm
12:34 2.8 °C -2.2 °C 1022.2 hPa SW 12.9 km/h 25.7 km/h 70% 0 mm
12:39 2.6 °C -2.2 °C 1022.6 hPa WSW 12.9 km/h 25.7 km/h 71% 0 mm
12:44 2.4 °C -2.3 °C 1022.2 hPa WSW 11.3 km/h 22.5 km/h 71% 0 mm
12:49 2.7 °C -1.8 °C 1022.6 hPa SW 9.7 km/h 19.3 km/h 72% 0 mm
12:54 3.1 °C -1.7 °C 1022.6 hPa WSW 4.8 km/h 12.9 km/h 71% 0 mm
12:59 2.9 °C -2.2 °C 1022.6 hPa SW 8 km/h 19.3 km/h 69% 0 mm
13:04 2.9 °C -2.1 °C 1022.6 hPa SW 17.7 km/h 22.5 km/h 70% 0 mm
13:09 2.7 °C -2 °C 1022.6 hPa WSW 11.3 km/h 22.5 km/h 71% 0 mm
13:14 2.6 °C -1.9 °C 1022.6 hPa WSW 8 km/h 22.5 km/h 72% 0 mm
13:19 2.8 °C -2.1 °C 1022.6 hPa SW 19.3 km/h 22.5 km/h 70% 0 mm
13:24 2.9 °C -2 °C 1022.6 hPa West 3.2 km/h 20.9 km/h 70% 0 mm
13:29 3.3 °C -1.9 °C 1022.6 hPa West 9.7 km/h 20.9 km/h 69% 0 mm
13:35 2.9 °C -1.8 °C 1022.6 hPa West 9.7 km/h 19.3 km/h 71% 0 mm
13:39 2.6 °C -1.9 °C 1022.6 hPa WSW 9.7 km/h 19.3 km/h 72% 0 mm
13:44 2.3 °C -2 °C 1022.6 hPa WSW 9.7 km/h 19.3 km/h 73% 0 mm
13:49 2.9 °C -1.5 °C 1022.6 hPa WSW 9.7 km/h 19.3 km/h 73% 0 mm
13:54 2.9 °C -1.6 °C 1022.2 hPa WSW 9.7 km/h 20.9 km/h 72% 0 mm
13:59 2.6 °C -1.9 °C 1022.2 hPa WSW 11.3 km/h 20.9 km/h 72% 0 mm
14:05 2.6 °C -1.7 °C 1022.2 hPa WSW 9.7 km/h 19.3 km/h 73% 0 mm
14:09 2.8 °C -1.8 °C 1022.2 hPa SW 9.7 km/h 19.3 km/h 72% 0 mm
14:14 2.8 °C -1.9 °C 1022.6 hPa SW 11.3 km/h 19.3 km/h 71% 0 mm
14:19 3.1 °C -1.7 °C 1022.6 hPa NW 16.1 km/h 19.3 km/h 71% 0 mm
14:24 2.8 °C -2.1 °C 1022.6 hPa West 12.9 km/h 29 km/h 70% 0 mm
14:29 2.7 °C -2.2 °C 1022.6 hPa West 8 km/h 24.1 km/h 70% 0 mm
14:34 2.7 °C -2.2 °C 1022.6 hPa WSW 8 km/h 20.9 km/h 70% 0 mm
14:39 2.8 °C -1.9 °C 1022.9 hPa WSW 6.4 km/h 24.1 km/h 71% 0 mm
14:44 2.9 °C -1.8 °C 1022.9 hPa WSW 9.7 km/h 24.1 km/h 71% 0 mm
14:49 3 °C -1.9 °C 1022.9 hPa WSW 8 km/h 19.3 km/h 70% 0 mm
14:54 3.1 °C -1.7 °C 1022.9 hPa WSW 9.7 km/h 20.9 km/h 71% 0 mm
14:59 2.9 °C -1.7 °C 1022.9 hPa West 6.4 km/h 20.9 km/h 72% 0 mm
15:05 2.9 °C -1.8 °C 1023.2 hPa WSW 9.7 km/h 20.9 km/h 71% 0 mm
15:09 2.9 °C -1.8 °C 1023.2 hPa SW 8 km/h 20.9 km/h 71% 0 mm
15:14 2.7 °C -1.8 °C 1023.2 hPa SW 9.7 km/h 17.7 km/h 72% 0 mm
15:20 2.7 °C -1.9 °C 1023.6 hPa SW 16.1 km/h 22.5 km/h 72% 0 mm
15:24 2.5 °C -2.1 °C 1023.6 hPa SW 11.3 km/h 22.5 km/h 72% 0 mm
15:29 2.4 °C -1.9 °C 1023.6 hPa SW 12.9 km/h 20.9 km/h 73% 0 mm
15:34 2.4 °C -1.9 °C 1023.6 hPa SW 3.2 km/h 17.7 km/h 73% 0 mm
15:39 2.4 °C -1.9 °C 1023.9 hPa SW 8 km/h 19.3 km/h 73% 0 mm
15:44 2.3 °C -2 °C 1023.9 hPa South 6.4 km/h 20.9 km/h 73% 0 mm
15:49 2.2 °C -1.9 °C 1023.9 hPa WSW 8 km/h 19.3 km/h 74% 0 mm
15:54 2.2 °C -1.9 °C 1023.9 hPa SW 8 km/h 19.3 km/h 74% 0 mm
15:59 2.2 °C -2 °C 1024.3 hPa SW 8 km/h 14.5 km/h 74% 0 mm
16:04 2.1 °C -2.1 °C 1024.3 hPa SW 6.4 km/h 14.5 km/h 74% 0 mm
16:09 2 °C -2.2 °C 1024.3 hPa WSW 4.8 km/h 14.5 km/h 74% 0 mm
16:14 2 °C -1.9 °C 1024.3 hPa WSW 8 km/h 14.5 km/h 75% 0 mm
16:19 1.9 °C -2 °C 1024.3 hPa WSW 8 km/h 14.5 km/h 75% 0 mm
16:24 1.8 °C -2.1 °C 1024.6 hPa SW 6.4 km/h 14.5 km/h 75% 0 mm
16:30 1.8 °C -2 °C 1024.6 hPa SW 9.7 km/h 17.7 km/h 76% 0 mm
16:34 1.7 °C -2.1 °C 1024.9 hPa SSW 4.8 km/h 14.5 km/h 76% 0 mm
16:39 1.7 °C -2.1 °C 1024.9 hPa SW 6.4 km/h 16.1 km/h 76% 0 mm
16:44 1.6 °C -2.1 °C 1024.9 hPa West 4.8 km/h 9.7 km/h 77% 0 mm
16:49 1.4 °C -2.2 °C 1024.9 hPa SSW 1.6 km/h 12.9 km/h 77% 0 mm
16:54 1.3 °C -2.1 °C 1024.9 hPa SW 4.8 km/h 8 km/h 78% 0 mm
16:59 1.2 °C -2.2 °C 1024.9 hPa WSW 3.2 km/h 11.3 km/h 78% 0 mm
17:04 1.2 °C -2.2 °C 1024.9 hPa SW 1.6 km/h 9.7 km/h 78% 0 mm
17:09 1.1 °C -2.2 °C 1024.9 hPa SW 4.8 km/h 9.7 km/h 79% 0 mm
17:14 0.9 °C -2.3 °C 1025.3 hPa West 6.4 km/h 6.4 km/h 79% 0 mm
17:19 0.9 °C -2.3 °C 1025.3 hPa WSW 4.8 km/h 6.4 km/h 79% 0 mm
17:24 0.8 °C -2.4 °C 1025.3 hPa Calm   9.7 km/h 79% 0 mm
17:29 0.7 °C -2.4 °C 1025.3 hPa SW 3.2 km/h 9.7 km/h 80% 0 mm
17:34 0.6 °C -2.5 °C 1025.6 hPa SW 1.6 km/h 4.8 km/h 80% 0 mm
17:39 0.6 °C -2.5 °C 1025.6 hPa SW 1.6 km/h 6.4 km/h 80% 0 mm
17:44 0.3 °C -2.8 °C 1025.6 hPa SW 1.6 km/h 6.4 km/h 80% 0 mm
17:49 0.2 °C -2.7 °C 1025.6 hPa Calm   3.2 km/h 81% 0 mm
17:54 -0.1 °C -3 °C 1026 hPa Calm     81% 0 mm
17:59 -0.3 °C -3 °C 1026 hPa Calm     82% 0 mm
18:04 -0.4 °C -3.2 °C 1025.6 hPa Calm     82% 0 mm
18:09 -0.7 °C -3.2 °C 1025.6 hPa Calm     83% 0 mm
18:14 -0.7 °C -3.3 °C 1026 hPa Calm     83% 0 mm
18:19 -0.8 °C -3.2 °C 1026 hPa Calm     84% 0 mm
18:24 -0.7 °C -3.1 °C 1026 hPa Calm     84% 0 mm
18:29 -0.7 °C -3.1 °C 1026 hPa Calm     84% 0 mm
18:34 -0.8 °C -3.2 °C 1026 hPa Calm     84% 0 mm
18:39 -0.9 °C -3.3 °C 1026 hPa Calm     84% 0 mm
18:44 -1.2 °C -3.4 °C 1026 hPa Calm     85% 0 mm
18:49 -1.3 °C -3.3 °C 1026 hPa Calm     86% 0 mm
18:54 -1.1 °C -3.1 °C 1026 hPa Calm     86% 0 mm
18:59 -1.1 °C -3.2 °C 1026 hPa Calm     86% 0 mm
19:04 -1.3 °C -3.6 °C 1026 hPa Calm     85% 0 mm
19:09 -1.7 °C -3.8 °C 1026.3 hPa Calm     86% 0 mm
19:14 -1.9 °C -3.9 °C 1026.6 hPa Calm     86% 0 mm
19:19 -2.1 °C -3.9 °C 1026.6 hPa Calm     87% 0 mm
19:24 -2.2 °C -4.1 °C 1026.6 hPa Calm     87% 0 mm
19:29 -2.4 °C -4.3 °C 1026.6 hPa Calm     87% 0 mm
19:34 -2.5 °C -4.2 °C 1026.6 hPa Calm     88% 0 mm
19:39 -2.6 °C -4.5 °C 1026.6 hPa Calm     87% 0 mm
19:44 -2.6 °C -4.3 °C 1027 hPa Calm     88% 0 mm
19:49 -2.4 °C -4.2 °C 1027 hPa Calm     88% 0 mm
19:54 -2.6 °C -4.3 °C 1027 hPa Calm     88% 0 mm
19:59 -2.9 °C -4.6 °C 1027 hPa Calm     88% 0 mm
20:04 -2.7 °C -4.3 °C 1027 hPa Calm     89% 0 mm
20:09 -2.7 °C -4.4 °C 1027 hPa Calm     88% 0 mm
20:14 -2.8 °C -4.4 °C 1027 hPa Calm     89% 0 mm
20:19 -2.7 °C -4.2 °C 1027 hPa Calm     89% 0 mm
20:24 -2.5 °C -4.1 °C 1027 hPa Calm     89% 0 mm
20:29 -2.8 °C -4.5 °C 1027 hPa Calm     88% 0 mm
20:34 -2.9 °C -4.7 °C 1027 hPa Calm     88% 0 mm
20:39 -3.2 °C -4.9 °C 1027.3 hPa Calm     88% 0 mm
20:44 -3.4 °C -5.1 °C 1027.3 hPa Calm     88% 0 mm
20:49 -3.4 °C -5 °C 1027.3 hPa Calm     89% 0 mm
20:54 -3.4 °C -4.9 °C 1027.7 hPa Calm     89% 0 mm
20:59 -3.4 °C -5 °C 1027.7 hPa Calm     89% 0 mm
21:04 -3.4 °C -4.8 °C 1027.3 hPa Calm     90% 0 mm
21:09 -3.4 °C -4.8 °C 1027.7 hPa Calm     90% 0 mm
21:14 -3.4 °C -5 °C 1027.7 hPa Calm     89% 0 mm
21:19 -3.4 °C -5 °C 1027.3 hPa Calm     89% 0 mm
21:24 -3.3 °C -4.7 °C 1027.3 hPa Calm     90% 0 mm
21:29 -3.1 °C -4.7 °C 1027.3 hPa Calm     89% 0 mm
21:34 -3.2 °C -4.7 °C 1027.3 hPa Calm     89% 0 mm
21:39 -3.3 °C -4.8 °C 1027.3 hPa Calm     89% 0 mm
21:44 -3.3 °C -4.9 °C 1027.3 hPa Calm     89% 0 mm
21:49 -3.3 °C -4.9 °C 1027.3 hPa Calm     89% 0 mm
21:54 -3.4 °C -4.9 °C 1027.3 hPa Calm     89% 0 mm
21:59 -3.3 °C -4.8 °C 1027.3 hPa Calm     89% 0 mm
22:04 -3.1 °C -4.8 °C 1027.3 hPa Calm     88% 0 mm
22:09 -3.1 °C -4.8 °C 1027.3 hPa Calm     88% 0 mm
22:14 -3.1 °C -4.8 °C 1027.3 hPa Calm     88% 0 mm
22:19 -3.1 °C -4.8 °C 1027.3 hPa Calm     88% 0 mm
22:24 -3.1 °C -4.8 °C 1027.7 hPa Calm     88% 0 mm
22:29 -3.1 °C -4.8 °C 1027.7 hPa Calm     88% 0 mm
22:34 -3.2 °C -5 °C 1027.7 hPa Calm   3.2 km/h 87% 0 mm
22:39 -3.3 °C -5.1 °C 1027.7 hPa Calm   3.2 km/h 87% 0 mm
22:44 -3.3 °C -5.1 °C 1027.7 hPa Calm   1.6 km/h 87% 0 mm
22:49 -3.3 °C -5.3 °C 1027.7 hPa Calm   3.2 km/h 86% 0 mm
22:54 -3.3 °C -5.3 °C 1027.7 hPa Calm     86% 0 mm
22:59 -3.5 °C -5.7 °C 1027.7 hPa Calm     85% 0 mm
23:04 -3.5 °C -5.7 °C 1027.3 hPa Calm     85% 0 mm
23:09 -3.6 °C -5.7 °C 1027.3 hPa Calm     85% 0 mm
23:14 -3.6 °C -5.8 °C 1027.3 hPa Calm     85% 0 mm
23:19 -3.5 °C -5.7 °C 1027.3 hPa Calm   4.8 km/h 85% 0 mm
23:24 -3.6 °C -5.9 °C 1027.3 hPa Calm   4.8 km/h 84% 0 mm
23:29 -3.6 °C -5.9 °C 1027.3 hPa Calm     84% 0 mm
23:34 -3.6 °C -5.9 °C 1027.3 hPa Calm     84% 0 mm
23:39 -3.6 °C -5.9 °C 1027.3 hPa Calm   3.2 km/h 84% 0 mm
23:44 -3.7 °C -6.1 °C 1027.3 hPa Calm     83% 0 mm
23:49 -3.6 °C -6.1 °C 1027.3 hPa Calm   4.8 km/h 83% 0 mm
23:54 -3.6 °C -6.1 °C 1027.3 hPa ESE 1.6 km/h 3.2 km/h 83% 0 mm
23:59 -3.6 °C -6.2 °C 1027.3 hPa ESE 1.6 km/h 4.8 km/h 82% 0 mm
Buffalo, New York, USA
Compliments of Weather Underground - 2.5 mb